| time (UTC) | temp C | wind direction | speed KPH | gust KPH | rain 1hr cm | rain 24hr cm | rain mn cm | humidity % | barometer mb |
| 20260510223909 | 15 | 269 | 3.2 | 6.4 | 0.00 | 0.00 | 0.00 | 34 | 1017.4 |
| 20260510223407 | 15 | 278 | 4.8 | 9.7 | 0.00 | 0.00 | 0.00 | 34 | 1017.3 |
| 20260510222904 | 15 | 281 | 4.8 | 6.4 | 0.00 | 0.00 | 0.00 | 34 | 1017.5 |
| 20260510222402 | 15 | 345 | 4.8 | 6.4 | 0.00 | 0.00 | 0.00 | 34 | 1017.4 |
| 20260510221856 | 15 | 41 | 4.8 | 9.7 | 0.00 | 0.00 | 0.00 | 36 | 1017.2 |
| 20260510221353 | 15 | 29 | 6.4 | 11.3 | 0.00 | 0.00 | 0.00 | 33 | 1017.1 |
| 20260510220849 | 15 | 59 | 3.2 | 9.7 | 0.00 | 0.00 | 0.00 | 34 | 1017.2 |
| 20260510220346 | 15 | 45 | 3.2 | 6.4 | 0.00 | 0.00 | 0.00 | 36 | 1017.0 |
| 20260510215842 | 16 | 312 | 11.3 | 14.5 | 0.00 | 0.00 | 0.00 | 32 | 1017.0 |
| 20260510215339 | 16 | 318 | 6.4 | 11.3 | 0.00 | 0.00 | 0.00 | 35 | 1016.7 |
| 20260510214837 | 16 | 20 | 9.7 | 14.5 | 0.00 | 0.00 | 0.00 | 32 | 1016.8 |
| 20260510214334 | 16 | 269 | 3.2 | 4.8 | 0.00 | 0.00 | 0.00 | 35 | 1017.0 |
| 20260510213831 | 15 | 23 | 6.4 | 6.4 | 0.00 | 0.00 | 0.00 | 33 | 1016.9 |
| 20260510213327 | 15 | 43 | 4.8 | 6.4 | 0.00 | 0.00 | 0.00 | 37 | 1016.6 |
| 20260510212824 | 15 | 36 | 4.8 | 6.4 | 0.00 | 0.00 | 0.00 | 36 | 1016.7 |
| 20260510212321 | 15 | 29 | 4.8 | 4.8 | 0.00 | 0.00 | 0.00 | 36 | 1016.5 |
| 20260510211818 | 15 | 341 | 9.7 | 11.3 | 0.00 | 0.00 | 0.00 | 35 | 1016.4 |
| 20260510211314 | 15 | 13 | 9.7 | 12.9 | 0.00 | 0.00 | 0.00 | 35 | 1016.2 |
| 20260510210810 | 16 | 342 | 6.4 | 12.9 | 0.00 | 0.00 | 0.00 | 34 | 1016.4 |
| 20260510210310 | 16 | 263 | 1.6 | 4.8 | 0.00 | 0.00 | 0.00 | 33 | 1016.4 |
| 20260510205809 | 15 | 303 | 6.4 | 11.3 | 0.00 | 0.00 | 0.00 | 34 | 1016.5 |
| 20260510205306 | 15 | 319 | 9.7 | 12.9 | 0.00 | 0.00 | 0.00 | 35 | 1016.6 |
| 20260510204801 | 15 | 321 | 8.0 | 12.9 | 0.00 | 0.00 | 0.00 | 34 | 1016.3 |
| 20260510204258 | 15 | 289 | 8.0 | 17.7 | 0.00 | 0.00 | 0.00 | 35 | 1016.7 |
| 20260510203755 | 15 | 36 | 8.0 | 14.5 | 0.00 | 0.00 | 0.00 | 34 | 1016.5 |
| 20260510203253 | 15 | 45 | 3.2 | 6.4 | 0.00 | 0.00 | 0.00 | 36 | 1016.6 |
| 20260510202752 | 15 | 4 | 12.9 | 14.5 | 0.00 | 0.00 | 0.00 | 35 | 1016.8 |
| 20260510202248 | 15 | 338 | 11.3 | 14.5 | 0.00 | 0.00 | 0.00 | 36 | 1016.7 |
| 20260510201745 | 15 | 319 | 8.0 | 16.1 | 0.00 | 0.00 | 0.00 | 39 | 1016.6 |
| 20260510201242 | 15 | 23 | 6.4 | 12.9 | 0.00 | 0.00 | 0.00 | 36 | 1016.9 |
| 20260510200738 | 15 | 26 | 6.4 | 11.3 | 0.00 | 0.00 | 0.00 | 35 | 1016.8 |
| 20260510200236 | 15 | 264 | 6.4 | 9.7 | 0.00 | 0.00 | 0.00 | 33 | 1016.8 |
| 20260510195733 | 15 | 350 | 9.7 | 16.1 | 0.00 | 0.00 | 0.00 | 34 | 1016.9 |
| 20260510195229 | 15 | 38 | 6.4 | 12.9 | 0.00 | 0.00 | 0.00 | 34 | 1016.8 |
| 20260510194729 | 15 | 235 | 1.6 | 9.7 | 0.00 | 0.00 | 0.00 | 34 | 1016.7 |
| 20260510194226 | 15 | 261 | 8.0 | 16.1 | 0.00 | 0.00 | 0.00 | 35 | 1016.9 |
| 20260510193721 | 15 | 304 | 4.8 | 11.3 | 0.00 | 0.00 | 0.00 | 34 | 1016.9 |
| 20260510193216 | 15 | 16 | 9.7 | 22.5 | 0.00 | 0.00 | 0.00 | 33 | 1017.0 |
| 20260510192712 | 15 | 327 | 11.3 | 14.5 | 0.00 | 0.00 | 0.00 | 35 | 1017.1 |
| 20260510192208 | 15 | 320 | 8.0 | 12.9 | 0.00 | 0.00 | 0.00 | 37 | 1016.8 |
| 20260510191703 | 15 | 358 | 9.7 | 17.7 | 0.00 | 0.00 | 0.00 | 37 | 1016.7 |
| 20260510191200 | 15 | 272 | 6.4 | 11.3 | 0.00 | 0.00 | 0.00 | 35 | 1016.9 |
| 20260510190658 | 15 | 348 | 9.7 | 14.5 | 0.00 | 0.00 | 0.00 | 33 | 1017.0 |
| 20260510190155 | 15 | 304 | 8.0 | 16.1 | 0.00 | 0.00 | 0.00 | 31 | 1016.9 |
| 20260510185652 | 15 | 301 | 16.1 | 20.9 | 0.00 | 0.00 | 0.00 | 35 | 1016.8 |
| 20260510185150 | 15 | 338 | 9.7 | 14.5 | 0.00 | 0.00 | 0.00 | 35 | 1017.0 |
| 20260510184646 | 15 | 216 | 6.4 | 16.1 | 0.00 | 0.00 | 0.00 | 32 | 1017.1 |
| 20260510184142 | 14 | 25 | 6.4 | 11.3 | 0.00 | 0.00 | 0.00 | 33 | 1016.9 |
| 20260510183637 | 15 | 37 | 11.3 | 22.5 | 0.00 | 0.00 | 0.00 | 32 | 1016.8 |
| 20260510183133 | 15 | 7 | 14.5 | 17.7 | 0.00 | 0.00 | 0.00 | 34 | 1016.9 |
| 20260510182630 | 15 | 350 | 8.0 | 11.3 | 0.00 | 0.00 | 0.00 | 34 | 1016.9 |
| 20260510182125 | 14 | 351 | 16.1 | 17.7 | 0.00 | 0.00 | 0.00 | 36 | 1016.9 |
| 20260510181623 | 14 | 358 | 12.9 | 16.1 | 0.00 | 0.00 | 0.00 | 34 | 1017.0 |
| 20260510181119 | 14 | 339 | 8.0 | 12.9 | 0.00 | 0.00 | 0.00 | 33 | 1016.8 |
| 20260510180615 | 14 | 329 | 17.7 | 27.4 | 0.00 | 0.00 | 0.00 | 32 | 1016.6 |
| 20260510180113 | 14 | 297 | 6.4 | 16.1 | 0.00 | 0.00 | 0.00 | 35 | 1016.7 |
| 20260510175609 | 14 | 348 | 12.9 | 22.5 | 0.00 | 0.00 | 0.00 | 37 | 1016.6 |
| 20260510175104 | 14 | 327 | 6.4 | 11.3 | 0.00 | 0.00 | 0.00 | 36 | 1016.7 |
| 20260510174603 | 14 | 247 | 3.2 | 6.4 | 0.00 | 0.00 | 0.00 | 38 | 1016.8 |
| 20260510174059 | 13 | 284 | 8.0 | 16.1 | 0.00 | 0.00 | 0.00 | 36 | 1016.6 |
| 20260510173555 | 14 | 304 | 4.8 | 11.3 | 0.00 | 0.00 | 0.00 | 37 | 1016.8 |
| 20260510173052 | 14 | 314 | 14.5 | 22.5 | 0.00 | 0.00 | 0.00 | 37 | 1016.7 |
| 20260510172548 | 14 | 356 | 4.8 | 12.9 | 0.00 | 0.00 | 0.00 | 39 | 1016.5 |
| 20260510172044 | 14 | 314 | 8.0 | 11.3 | 0.00 | 0.00 | 0.00 | 38 | 1016.8 |
| 20260510171541 | 14 | 325 | 6.4 | 9.7 | 0.00 | 0.00 | 0.00 | 39 | 1016.8 |
| 20260510171038 | 14 | 298 | 9.7 | 14.5 | 0.00 | 0.00 | 0.00 | 43 | 1016.7 |
| 20260510170534 | 14 | 340 | 8.0 | 14.5 | 0.00 | 0.00 | 0.00 | 44 | 1016.7 |
| 20260510170031 | 14 | 303 | 8.0 | 11.3 | 0.00 | 0.00 | 0.00 | 41 | 1016.7 |
| 20260510165526 | 14 | 1 | 6.4 | 11.3 | 0.00 | 0.00 | 0.00 | 41 | 1016.8 |
| 20260510165023 | 13 | 288 | 4.8 | 12.9 | 0.00 | 0.00 | 0.00 | 39 | 1016.8 |
| 20260510164520 | 13 | 282 | 4.8 | 9.7 | 0.00 | 0.00 | 0.00 | 36 | 1016.9 |
| 20260510164017 | 14 | 343 | 6.4 | 9.7 | 0.00 | 0.00 | 0.00 | 43 | 1016.9 |
| 20260510163512 | 14 | 21 | 8.0 | 16.1 | 0.00 | 0.00 | 0.00 | 42 | 1016.7 |
| 20260510163008 | 13 | 209 | 1.6 | 4.8 | 0.00 | 0.00 | 0.00 | 41 | 1017.0 |
| 20260510162504 | 13 | 90 | 3.2 | 11.3 | 0.00 | 0.00 | 0.00 | 38 | 1016.6 |
| 20260510162000 | 13 | 303 | 3.2 | 11.3 | 0.00 | 0.00 | 0.00 | 39 | 1016.6 |
| 20260510161456 | 13 | 350 | 14.5 | 17.7 | 0.00 | 0.00 | 0.00 | 42 | 1016.8 |
| 20260510160953 | 13 | 31 | 6.4 | 6.4 | 0.00 | 0.00 | 0.00 | 45 | 1016.6 |
| 20260510160451 | 13 | 68 | 3.2 | 4.8 | 0.00 | 0.00 | 0.00 | 44 | 1016.5 |
| 20260510155948 | 13 | 33 | 6.4 | 9.7 | 0.00 | 0.00 | 0.00 | 46 | 1016.6 |
| 20260510155446 | 13 | 340 | 0.0 | 6.4 | 0.00 | 0.00 | 0.00 | 40 | 1016.4 |
| 20260510154943 | 13 | 338 | 4.8 | 9.7 | 0.00 | 0.00 | 0.00 | 45 | 1016.2 |
| 20260510154439 | 13 | 283 | 8.0 | 9.7 | 0.00 | 0.00 | 0.00 | 42 | 1016.4 |
| 20260510153937 | 12 | 8 | 8.0 | 11.3 | 0.00 | 0.00 | 0.00 | 48 | 1016.2 |
| 20260510153435 | 12 | 359 | 12.9 | 14.5 | 0.00 | 0.00 | 0.00 | 53 | 1015.9 |
| 20260510152931 | 12 | 34 | 6.4 | 16.1 | 0.00 | 0.00 | 0.00 | 49 | 1015.8 |
| 20260510152429 | 12 | 47 | 3.2 | 6.4 | 0.00 | 0.00 | 0.00 | 50 | 1016.1 |
| 20260510151925 | 12 | 29 | 8.0 | 9.7 | 0.00 | 0.00 | 0.00 | 52 | 1015.8 |
| 20260510151422 | 12 | 69 | 8.0 | 9.7 | 0.00 | 0.00 | 0.00 | 51 | 1016.1 |
| 20260510150918 | 12 | 28 | 8.0 | 11.3 | 0.00 | 0.00 | 0.00 | 53 | 1015.9 |
| 20260510150414 | 12 | 58 | 3.2 | 16.1 | 0.00 | 0.00 | 0.00 | 54 | 1016.1 |
| 20260510145910 | 12 | 115 | 3.2 | 6.4 | 0.00 | 0.00 | 0.00 | 52 | 1015.9 |
| 20260510145407 | 12 | 17 | 11.3 | 12.9 | 0.00 | 0.00 | 0.00 | 56 | 1015.7 |
| 20260510144903 | 12 | 25 | 11.3 | 14.5 | 0.00 | 0.00 | 0.00 | 54 | 1015.8 |
| 20260510144400 | 11 | 0 | 6.4 | 12.9 | 0.00 | 0.00 | 0.00 | 54 | 1015.8 |
| 20260510143855 | 12 | 9 | 9.7 | 12.9 | 0.00 | 0.00 | 0.00 | 53 | 1015.5 |
| 20260510143351 | 12 | 27 | 11.3 | 16.1 | 0.00 | 0.00 | 0.00 | 53 | 1015.5 |
| 20260510142848 | 12 | 58 | 14.5 | 14.5 | 0.00 | 0.00 | 0.00 | 55 | 1015.4 |
| 20260510142344 | 12 | 43 | 8.0 | 14.5 | 0.00 | 0.00 | 0.00 | 54 | 1015.4 |
| 20260510141841 | 12 | 38 | 9.7 | 12.9 | 0.00 | 0.00 | 0.00 | 57 | 1015.2 |
| 20260510141339 | 11 | 9 | 4.8 | 12.9 | 0.00 | 0.00 | 0.00 | 57 | 1015.4 |
| 20260510140836 | 12 | 24 | 11.3 | 14.5 | 0.00 | 0.00 | 0.00 | 54 | 1015.5 |
| 20260510140332 | 11 | 18 | 9.7 | 12.9 | 0.00 | 0.00 | 0.00 | 54 | 1015.5 |
| 20260510135831 | 11 | 28 | 11.3 | 17.7 | 0.00 | 0.00 | 0.00 | 52 | 1015.5 |
| 20260510135327 | 11 | 19 | 6.4 | 9.7 | 0.00 | 0.00 | 0.00 | 53 | 1015.7 |
| 20260510134825 | 11 | 47 | 6.4 | 9.7 | 0.00 | 0.00 | 0.00 | 55 | 1015.7 |
| 20260510134322 | 11 | 69 | 9.7 | 11.3 | 0.00 | 0.00 | 0.00 | 52 | 1015.6 |
| 20260510133817 | 11 | 87 | 3.2 | 12.9 | 0.00 | 0.00 | 0.00 | 51 | 1015.6 |
| 20260510133314 | 11 | 345 | 4.8 | 6.4 | 0.00 | 0.00 | 0.00 | 53 | 1015.6 |
| 20260510132809 | 11 | 17 | 8.0 | 12.9 | 0.00 | 0.00 | 0.00 | 51 | 1015.3 |
| 20260510132308 | 11 | 49 | 6.4 | 14.5 | 0.00 | 0.00 | 0.00 | 52 | 1015.4 |
| 20260510131804 | 11 | 37 | 8.0 | 12.9 | 0.00 | 0.00 | 0.00 | 52 | 1015.4 |
| 20260510131302 | 10 | 36 | 9.7 | 17.7 | 0.00 | 0.00 | 0.00 | 53 | 1015.4 |
| 20260510130758 | 11 | 2 | 11.3 | 14.5 | 0.00 | 0.00 | 0.00 | 54 | 1015.3 |
| 20260510130255 | 10 | 358 | 11.3 | 20.9 | 0.00 | 0.00 | 0.00 | 53 | 1015.0 |
| 20260510125752 | 10 | 39 | 14.5 | 20.9 | 0.00 | 0.00 | 0.00 | 53 | 1015.2 |
| 20260510125248 | 10 | 15 | 11.3 | 17.7 | 0.00 | 0.00 | 0.00 | 57 | 1015.1 |
| 20260510124745 | 10 | 38 | 8.0 | 17.7 | 0.00 | 0.00 | 0.00 | 58 | 1014.9 |
| 20260510124243 | 10 | 7 | 9.7 | 20.9 | 0.00 | 0.00 | 0.00 | 58 | 1014.7 |
| 20260510123743 | 10 | 355 | 16.1 | 24.1 | 0.00 | 0.00 | 0.00 | 57 | 1014.6 |
| 20260510123239 | 10 | 16 | 14.5 | 16.1 | 0.00 | 0.00 | 0.00 | 58 | 1014.7 |
| 20260510122736 | 10 | 40 | 12.9 | 14.5 | 0.00 | 0.00 | 0.00 | 60 | 1014.4 |
| 20260510122232 | 10 | 38 | 8.0 | 12.9 | 0.00 | 0.00 | 0.00 | 60 | 1014.5 |
| 20260510121728 | 10 | 22 | 11.3 | 14.5 | 0.00 | 0.00 | 0.00 | 60 | 1014.4 |
| 20260510121226 | 10 | 343 | 6.4 | 14.5 | 0.00 | 0.00 | 0.00 | 60 | 1014.3 |
| 20260510120723 | 10 | 39 | 8.0 | 16.1 | 0.00 | 0.00 | 0.00 | 58 | 1014.2 |
| 20260510120219 | 10 | 52 | 9.7 | 12.9 | 0.00 | 0.00 | 0.00 | 60 | 1014.3 |
| 20260510115715 | 10 | 42 | 4.8 | 11.3 | 0.00 | 0.00 | 0.00 | 63 | 1014.1 |
| 20260510115214 | 10 | 19 | 8.0 | 12.9 | 0.00 | 0.00 | 0.00 | 64 | 1014.0 |
| 20260510114709 | 9 | 25 | 8.0 | 12.9 | 0.00 | 0.00 | 0.00 | 64 | 1014.0 |
| 20260510114206 | 9 | 24 | 11.3 | 16.1 | 0.00 | 0.00 | 0.00 | 63 | 1013.6 |
| 20260510113700 | 9 | 31 | 9.7 | 12.9 | 0.00 | 0.00 | 0.00 | 65 | 1013.5 |
| 20260510113158 | 9 | 14 | 12.9 | 16.1 | 0.00 | 0.00 | 0.00 | 66 | 1013.4 |
| 20260510112654 | 9 | 15 | 11.3 | 14.5 | 0.00 | 0.00 | 0.00 | 66 | 1013.5 |
| 20260510112152 | 9 | 15 | 12.9 | 20.9 | 0.00 | 0.00 | 0.00 | 65 | 1013.3 |
| 20260510111648 | 9 | 36 | 4.8 | 11.3 | 0.00 | 0.00 | 0.00 | 68 | 1013.2 |
| 20260510111145 | 9 | 0 | 9.7 | 16.1 | 0.00 | 0.00 | 0.00 | 66 | 1013.1 |
| 20260510110639 | 9 | 31 | 8.0 | 16.1 | 0.00 | 0.00 | 0.00 | 71 | 1012.9 |
| 20260510110137 | 9 | 359 | 11.3 | 14.5 | 0.00 | 0.00 | 0.00 | 74 | 1012.9 |
| 20260510105633 | 9 | 346 | 9.7 | 16.1 | 0.00 | 0.00 | 0.00 | 74 | 1012.9 |
| 20260510105132 | 9 | 31 | 3.2 | 11.3 | 0.00 | 0.00 | 0.00 | 76 | 1012.8 |
| 20260510104630 | 9 | 23 | 11.3 | 14.5 | 0.00 | 0.00 | 0.00 | 77 | 1012.7 |
| 20260510104126 | 9 | 9 | 8.0 | 14.5 | 0.00 | 0.00 | 0.00 | 77 | 1012.6 |
| 20260510103623 | 10 | 6 | 9.7 | 17.7 | 0.00 | 0.00 | 0.00 | 77 | 1012.6 |
| 20260510103119 | 9 | 7 | 3.2 | 9.7 | 0.00 | 0.00 | 0.00 | 77 | 1012.5 |
| 20260510102614 | 9 | 12 | 8.0 | 11.3 | 0.00 | 0.00 | 0.00 | 76 | 1012.2 |
| 20260510102110 | 9 | 28 | 8.0 | 11.3 | 0.00 | 0.00 | 0.00 | 76 | 1011.9 |
| 20260510101608 | 10 | 15 | 3.2 | 4.8 | 0.00 | 0.00 | 0.00 | 75 | 1011.9 |
| 20260510101106 | 10 | 36 | 3.2 | 11.3 | 0.00 | 0.00 | 0.00 | 73 | 1011.7 |
| 20260510100602 | 10 | 35 | 3.2 | 9.7 | 0.00 | 0.00 | 0.00 | 72 | 1011.7 |
| 20260510100100 | 10 | 21 | 1.6 | 4.8 | 0.00 | 0.00 | 0.00 | 72 | 1011.7 |
| 20260510095556 | 9 | 39 | 3.2 | 4.8 | 0.00 | 0.00 | 0.00 | 72 | 1011.5 |
| 20260510095056 | 9 | 18 | 4.8 | 6.4 | 0.00 | 0.00 | 0.00 | 72 | 1011.4 |
| 20260510094555 | 9 | 3 | 3.2 | 4.8 | 0.00 | 0.00 | 0.00 | 72 | 1011.3 |
| 20260510094051 | 9 | 13 | 3.2 | 3.2 | 0.00 | 0.00 | 0.00 | 72 | 1011.3 |
| 20260510093547 | 9 | 14 | 1.6 | 1.6 | 0.00 | 0.00 | 0.00 | 72 | 1011.5 |
| 20260510093044 | 9 | 14 | 1.6 | 3.2 | 0.00 | 0.00 | 0.00 | 71 | 1011.0 |
| 20260510092541 | 9 | 14 | 1.6 | 3.2 | 0.00 | 0.00 | 0.00 | 71 | 1011.3 |
| 20260510092041 | 9 | 14 | 0.0 | 1.6 | 0.00 | 0.00 | 0.00 | 72 | 1011.2 |
| 20260510091538 | 9 | 15 | 3.2 | 3.2 | 0.00 | 0.00 | 0.00 | 73 | 1011.0 |
| 20260510091033 | 9 | 22 | 1.6 | 3.2 | 0.00 | 0.00 | 0.00 | 73 | 1010.9 |
| 20260510090531 | 9 | 26 | 3.2 | 3.2 | 0.00 | 0.00 | 0.00 | 74 | 1010.9 |
| 20260510090027 | 9 | 29 | 0.0 | 1.6 | 0.00 | 0.00 | 0.00 | 75 | 1010.9 |
| 20260510085527 | 9 | 29 | 0.0 | 1.6 | 0.00 | 0.00 | 0.00 | 76 | 1010.4 |
| 20260510085023 | 9 | 29 | 0.0 | 1.6 | 0.00 | 0.00 | 0.00 | 75 | 1010.8 |
| 20260510084520 | 10 | 29 | 0.0 | 1.6 | 0.00 | 0.00 | 0.00 | 76 | 1010.7 |
| 20260510084016 | 10 | 29 | 1.6 | 1.6 | 0.00 | 0.00 | 0.00 | 75 | 1010.6 |
| 20260510083513 | 10 | 29 | 0.0 | 0.0 | 0.00 | 0.00 | 0.00 | 75 | 1010.6 |
| 20260510083009 | 10 | 29 | 0.0 | 0.0 | 0.00 | 0.00 | 0.00 | 75 | 1010.4 |
| 20260510082507 | 10 | 29 | 1.6 | 1.6 | 0.00 | 0.00 | 0.00 | 75 | 1010.5 |
| 20260510082006 | 9 | 29 | 1.6 | 3.2 | 0.00 | 0.00 | 0.00 | 77 | 1010.5 |
| 20260510081502 | 9 | 30 | 0.0 | 1.6 | 0.00 | 0.00 | 0.00 | 77 | 1010.4 |
| 20260510080958 | 9 | 30 | 1.6 | 1.6 | 0.00 | 0.00 | 0.00 | 77 | 1010.1 |
| 20260510080456 | 9 | 30 | 0.0 | 0.0 | 0.00 | 0.00 | 0.00 | 78 | 1010.1 |
| 20260510075954 | 9 | 30 | 0.0 | 0.0 | 0.00 | 0.00 | 0.00 | 77 | 1010.1 |
| 20260510075451 | 9 | 30 | 0.0 | 0.0 | 0.00 | 0.00 | 0.00 | 77 | 1010.0 |
| 20260510074948 | 9 | 30 | 0.0 | 0.0 | 0.00 | 0.00 | 0.00 | 76 | 1010.0 |
| 20260510074446 | 9 | 30 | 0.0 | 1.6 | 0.00 | 0.00 | 0.00 | 76 | 1009.7 |
| 20260510073941 | 9 | 30 | 0.0 | 1.6 | 0.00 | 0.00 | 0.00 | 76 | 1009.9 |
| 20260510073437 | 9 | 30 | 0.0 | 0.0 | 0.00 | 0.00 | 0.00 | 75 | 1009.8 |
| 20260510072934 | 9 | 30 | 0.0 | 1.6 | 0.00 | 0.00 | 0.00 | 75 | 1009.7 |
| 20260510072431 | 10 | 30 | 0.0 | 1.6 | 0.00 | 0.00 | 0.00 | 75 | 1009.5 |
| 20260510071926 | 10 | 20 | 3.2 | 3.2 | 0.00 | 0.00 | 0.00 | 75 | 1009.5 |
| 20260510071423 | 10 | 19 | 1.6 | 1.6 | 0.00 | 0.00 | 0.00 | 74 | 1009.5 |
| 20260510070921 | 10 | 25 | 3.2 | 4.8 | 0.00 | 0.00 | 0.00 | 73 | 1009.2 |
| 20260510070418 | 10 | 24 | 4.8 | 4.8 | 0.00 | 0.00 | 0.00 | 73 | 1009.2 |
| 20260510065913 | 10 | 43 | 1.6 | 4.8 | 0.00 | 0.00 | 0.00 | 73 | 1009.4 |
| 20260510065410 | 10 | 74 | 0.0 | 4.8 | 0.00 | 0.00 | 0.00 | 73 | 1009.1 |
| 20260510064907 | 10 | 52 | 1.6 | 3.2 | 0.00 | 0.00 | 0.00 | 72 | 1009.2 |
| 20260510064405 | 10 | 31 | 8.0 | 11.3 | 0.00 | 0.00 | 0.00 | 72 | 1009.0 |
| 20260510063900 | 10 | 39 | 3.2 | 9.7 | 0.00 | 0.00 | 0.00 | 72 | 1009.1 |
| 20260510063357 | 10 | 23 | 1.6 | 4.8 | 0.00 | 0.00 | 0.00 | 71 | 1009.2 |
| 20260510062854 | 11 | 28 | 4.8 | 9.7 | 0.00 | 0.00 | 0.00 | 70 | 1009.0 |
| 20260510062349 | 11 | 31 | 6.4 | 11.3 | 0.00 | 0.00 | 0.00 | 68 | 1009.1 |
| 20260510061845 | 11 | 27 | 6.4 | 9.7 | 0.00 | 0.00 | 0.00 | 68 | 1009.1 |
| 20260510061342 | 11 | 46 | 3.2 | 9.7 | 0.00 | 0.00 | 0.00 | 67 | 1009.1 |
| 20260510060838 | 11 | 31 | 6.4 | 14.5 | 0.00 | 0.00 | 0.00 | 67 | 1008.7 |
| 20260510060335 | 11 | 57 | 12.9 | 17.7 | 0.00 | 0.00 | 0.00 | 68 | 1008.6 |
| 20260510055832 | 11 | 58 | 6.4 | 20.9 | 0.00 | 0.00 | 0.00 | 70 | 1008.6 |
| 20260510055331 | 11 | 45 | 6.4 | 12.9 | 0.00 | 0.00 | 0.00 | 70 | 1008.5 |
| 20260510054830 | 11 | 46 | 9.7 | 14.5 | 0.00 | 0.00 | 0.00 | 70 | 1008.6 |
| 20260510054326 | 12 | 36 | 4.8 | 4.8 | 0.00 | 0.00 | 0.00 | 70 | 1008.6 |
| 20260510053821 | 12 | 7 | 9.7 | 11.3 | 0.00 | 0.00 | 0.00 | 69 | 1008.4 |
| 20260510053317 | 12 | 11 | 9.7 | 17.7 | 0.00 | 0.00 | 0.00 | 68 | 1008.6 |
| 20260510052814 | 12 | 8 | 11.3 | 16.1 | 0.00 | 0.00 | 0.00 | 69 | 1008.3 |
| 20260510052309 | 12 | 36 | 9.7 | 20.9 | 0.00 | 0.00 | 0.00 | 67 | 1008.1 |
| 20260510051806 | 13 | 19 | 12.9 | 24.1 | 0.00 | 0.00 | 0.00 | 67 | 1008.0 |
| 20260510051302 | 13 | 12 | 9.7 | 22.5 | 0.00 | 0.00 | 0.00 | 65 | 1007.8 |
| 20260510050800 | 13 | 25 | 17.7 | 25.7 | 0.00 | 0.00 | 0.00 | 62 | 1007.6 |
| 20260510050256 | 15 | 323 | 20.9 | 37.0 | 0.00 | 0.00 | 0.00 | 61 | 1007.6 |
| 20260510045753 | 15 | 308 | 8.0 | 16.1 | 0.00 | 0.00 | 0.00 | 68 | 1007.3 |
| 20260510045250 | 15 | 249 | 4.8 | 12.9 | 0.00 | 0.00 | 0.00 | 72 | 1007.2 |
| 20260510044747 | 15 | 321 | 8.0 | 17.7 | 0.00 | 0.00 | 0.00 | 73 | 1006.9 |
| 20260510044245 | 15 | 306 | 3.2 | 11.3 | 0.00 | 0.00 | 0.00 | 74 | 1007.1 |
| 20260510043740 | 15 | 246 | 9.7 | 11.3 | 0.00 | 0.00 | 0.00 | 74 | 1006.7 |
| 20260510043237 | 15 | 231 | 8.0 | 12.9 | 0.00 | 0.00 | 0.00 | 76 | 1006.8 |
| 20260510042734 | 15 | 257 | 9.7 | 14.5 | 0.00 | 0.00 | 0.00 | 76 | 1007.0 |
| 20260510042229 | 15 | 258 | 14.5 | 20.9 | 0.00 | 0.00 | 0.00 | 76 | 1006.7 |
| 20260510041727 | 14 | 307 | 8.0 | 16.1 | 0.00 | 0.00 | 0.00 | 77 | 1006.6 |
| 20260510041224 | 14 | 256 | 6.4 | 9.7 | 0.00 | 0.00 | 0.00 | 77 | 1006.2 |
| 20260510040721 | 15 | 215 | 6.4 | 6.4 | 0.00 | 0.00 | 0.00 | 77 | 1006.0 |
| 20260510040217 | 15 | 227 | 3.2 | 4.8 | 0.00 | 0.00 | 0.00 | 76 | 1005.8 |
| 20260510035713 | 15 | 177 | 8.0 | 9.7 | 0.00 | 0.23 | 0.23 | 76 | 1005.6 |
| 20260510035209 | 15 | 215 | 3.2 | 4.8 | 0.00 | 0.23 | 0.23 | 76 | 1005.8 |
| 20260510034705 | 15 | 242 | 1.6 | 6.4 | 0.00 | 0.23 | 0.23 | 76 | 1005.9 |
| 20260510034203 | 15 | 310 | 8.0 | 9.7 | 0.00 | 0.23 | 0.23 | 76 | 1005.8 |
| 20260510033659 | 15 | 219 | 6.4 | 11.3 | 0.00 | 0.23 | 0.23 | 76 | 1005.5 |
| 20260510033157 | 15 | 207 | 4.8 | 11.3 | 0.00 | 0.23 | 0.23 | 75 | 1005.3 |
| 20260510032653 | 15 | 223 | 8.0 | 11.3 | 0.00 | 0.23 | 0.23 | 75 | 1005.3 |
| 20260510032148 | 15 | 192 | 8.0 | 9.7 | 0.00 | 0.23 | 0.23 | 75 | 1005.1 |
| 20260510031643 | 15 | 188 | 4.8 | 11.3 | 0.00 | 0.23 | 0.23 | 74 | 1005.1 |
| 20260510031141 | 15 | 180 | 6.4 | 9.7 | 0.00 | 0.23 | 0.23 | 74 | 1005.2 |
| 20260510030640 | 15 | 177 | 6.4 | 9.7 | 0.00 | 0.23 | 0.23 | 73 | 1005.0 |
| 20260510030138 | 15 | 193 | 6.4 | 11.3 | 0.00 | 0.23 | 0.23 | 72 | 1005.1 |
| 20260510025635 | 15 | 201 | 6.4 | 12.9 | 0.00 | 0.23 | 0.23 | 72 | 1005.1 |
| 20260510025132 | 15 | 213 | 4.8 | 11.3 | 0.00 | 0.23 | 0.23 | 73 | 1005.1 |
| 20260510024629 | 15 | 190 | 6.4 | 9.7 | 0.00 | 0.23 | 0.23 | 73 | 1004.9 |
| 20260510024126 | 14 | 195 | 4.8 | 9.7 | 0.00 | 0.23 | 0.23 | 75 | 1004.9 |
| 20260510023622 | 15 | 176 | 1.6 | 4.8 | 0.00 | 0.23 | 0.23 | 75 | 1005.0 |
| 20260510023119 | 15 | 179 | 4.8 | 9.7 | 0.00 | 0.23 | 0.23 | 74 | 1004.9 |
| 20260510022619 | 15 | 185 | 4.8 | 9.7 | 0.00 | 0.23 | 0.23 | 73 | 1004.7 |
| 20260510022114 | 15 | 193 | 3.2 | 4.8 | 0.00 | 0.23 | 0.23 | 73 | 1004.9 |
| 20260510021610 | 15 | 207 | 4.8 | 9.7 | 0.00 | 0.23 | 0.23 | 72 | 1004.9 |
| 20260510021108 | 15 | 205 | 4.8 | 14.5 | 0.00 | 0.23 | 0.23 | 71 | 1004.9 |
| 20260510020607 | 15 | 180 | 4.8 | 6.4 | 0.00 | 0.23 | 0.23 | 70 | 1004.7 |
| 20260510020103 | 15 | 227 | 8.0 | 11.3 | 0.00 | 0.23 | 0.23 | 69 | 1004.7 |
| 20260510015559 | 16 | 207 | 6.4 | 11.3 | 0.00 | 0.23 | 0.23 | 69 | 1004.8 |
| 20260510015056 | 16 | 239 | 6.4 | 14.5 | 0.00 | 0.23 | 0.23 | 70 | 1004.7 |
| 20260510014552 | 16 | 212 | 8.0 | 11.3 | 0.00 | 0.23 | 0.23 | 70 | 1004.9 |
| 20260510014050 | 16 | 232 | 12.9 | 14.5 | 0.00 | 0.23 | 0.23 | 70 | 1004.7 |
| 20260510013550 | 16 | 211 | 17.7 | 17.7 | 0.00 | 0.23 | 0.23 | 69 | 1004.7 |
| 20260510013046 | 16 | 230 | 14.5 | 25.7 | 0.00 | 0.23 | 0.23 | 68 | 1004.6 |
| 20260510012545 | 16 | 233 | 9.7 | 24.1 | 0.00 | 0.23 | 0.23 | 68 | 1004.6 |
| 20260510012042 | 16 | 236 | 12.9 | 16.1 | 0.00 | 0.23 | 0.23 | 70 | 1004.5 |
| 20260510011542 | 15 | 221 | 8.0 | 11.3 | 0.00 | 0.23 | 0.23 | 71 | 1004.0 |
| 20260510011038 | 15 | 212 | 6.4 | 9.7 | 0.00 | 0.23 | 0.23 | 72 | 1003.9 |
| 20260510010535 | 15 | 223 | 6.4 | 11.3 | 0.00 | 0.23 | 0.23 | 74 | 1003.9 |
| 20260510010032 | 15 | 188 | 3.2 | 6.4 | 0.00 | 0.23 | 0.23 | 75 | 1004.0 |
| 20260510005527 | 15 | 170 | 3.2 | 3.2 | 0.00 | 0.23 | 0.23 | 74 | 1003.9 |
| 20260510005025 | 15 | 186 | 4.8 | 4.8 | 0.00 | 0.23 | 0.23 | 74 | 1003.9 |
| 20260510004522 | 15 | 191 | 6.4 | 11.3 | 0.00 | 0.23 | 0.23 | 73 | 1003.9 |
| 20260510004021 | 15 | 198 | 3.2 | 9.7 | 0.00 | 0.23 | 0.23 | 73 | 1003.9 |
| 20260510003517 | 15 | 207 | 4.8 | 9.7 | 0.00 | 0.23 | 0.23 | 73 | 1003.8 |
| 20260510003012 | 15 | 182 | 3.2 | 4.8 | 0.00 | 0.23 | 0.23 | 72 | 1003.8 |
| 20260510002508 | 16 | 211 | 3.2 | 6.4 | 0.00 | 0.23 | 0.23 | 71 | 1003.9 |
| 20260510002005 | 16 | 234 | 6.4 | 6.4 | 0.00 | 0.23 | 0.23 | 71 | 1003.7 |
| 20260510001503 | 16 | 230 | 6.4 | 11.3 | 0.00 | 0.23 | 0.23 | 70 | 1003.9 |
| 20260510001001 | 16 | 229 | 9.7 | 14.5 | 0.00 | 0.23 | 0.23 | 70 | 1003.9 |
| 20260510000456 | 16 | 227 | 6.4 | 12.9 | 0.00 | 0.23 | 0.23 | 69 | 1003.9 |
| 20260509235952 | 16 | 242 | 12.9 | 16.1 | 0.00 | 0.23 | 0.23 | 69 | 1003.6 |
| 20260509235449 | 16 | 228 | 11.3 | 14.5 | 0.00 | 0.23 | 0.23 | 69 | 1003.9 |
| 20260509234945 | 16 | 234 | 12.9 | 22.5 | 0.00 | 0.23 | 0.23 | 68 | 1003.9 |
| 20260509234442 | 16 | 230 | 11.3 | 24.1 | 0.00 | 0.23 | 0.23 | 69 | 1003.7 |
| 20260509233940 | 16 | 203 | 22.5 | 35.4 | 0.00 | 0.23 | 0.23 | 69 | 1003.8 |
| 20260509233438 | 16 | 227 | 9.7 | 22.5 | 0.00 | 0.23 | 0.23 | 69 | 1003.9 |
| 20260509232933 | 16 | 244 | 22.5 | 33.8 | 0.00 | 0.23 | 0.23 | 67 | 1003.6 |
| 20260509232432 | 16 | 235 | 16.1 | 27.4 | 0.00 | 0.23 | 0.23 | 67 | 1003.7 |
| 20260509231927 | 16 | 216 | 16.1 | 25.7 | 0.00 | 0.23 | 0.23 | 69 | 1003.7 |
| 20260509231424 | 16 | 218 | 19.3 | 25.7 | 0.00 | 0.23 | 0.23 | 69 | 1003.7 |
| 20260509230922 | 16 | 236 | 12.9 | 24.1 | 0.00 | 0.23 | 0.23 | 71 | 1003.8 |
| 20260509230419 | 16 | 268 | 19.3 | 24.1 | 0.00 | 0.23 | 0.23 | 72 | 1003.5 |
| 20260509225914 | 15 | 228 | 20.9 | 29.0 | 0.18 | 0.23 | 0.23 | 75 | 1003.5 |
| 20260509225411 | 15 | 230 | 22.5 | 29.0 | 0.18 | 0.23 | 0.23 | 76 | 1003.7 |
| 20260509224907 | 15 | 248 | 16.1 | 22.5 | 0.00 | 0.20 | 0.20 | 77 | 1003.6 |
| 20260509224403 | 14 | 232 | 11.3 | 24.1 | 0.00 | 0.20 | 0.20 | 81 | 1003.8 |